QPF
0.00 0.00 0.00 0.00 0.00 0.00 0.00 0.00 0.00 0.00 0.00 0.00 0.00 0.00 0.00 0.00 0.00 0.01 0.00 0.02 0.01 0.00 0.00 0.00 0.01 0.00 0.01 0.01 0.01 0.00 0.00 0.00 0.00 0.00 0.00 0.00 0.05 0.11 0.09 0.05 0.00 0.01 0.01 0.03 0.08 0.13 0.12 0.06 0.03
0.00 0.00 0.00 0.00 0.00 0.00 0.00 0.00 0.00 0.00 0.00 0.00 0.00 0.00 0.00 0.00 0.00 0.00 0.00 0.01 0.01 0.00 0.00 0.00 0.01 0.00 0.00 0.00 0.00 0.00 0.00 0.00 0.00 0.00 0.00 0.00 0.00 0.05 0.08 0.10 0.06 0.07 0.04 0.10 0.09 0.09 0.05 0.04 0.03
0.00 0.00 0.00 0.00 0.00 0.00 0.00 0.00 0.00 0.00 0.00 0.00 0.00 0.00 0.00 0.00 0.00 0.00 0.00 0.00 0.01 0.00 0.00 0.00 0.02 0.00 0.00 0.00 0.00 0.00 0.00 0.00 0.00 0.00 0.00 0.00 0.00 0.00 0.02 0.09 0.06 0.03 0.04 0.10 0.05 0.00 0.00 0.01 0.02
0.00 0.00 0.00 0.00 0.00 0.00 0.00 0.00 0.00 0.00 0.00 0.00 0.00 0.00 0.00 0.00 0.00 0.00 0.00 0.00 0.00 0.00 0.00 0.00 0.00 0.00 0.00 0.00 0.00 0.00 0.00 0.00 0.00 0.00 0.00 0.00 0.00 0.00 0.00 0.01 0.03 0.01 0.00 0.04 0.01 0.00 0.00 0.00 0.00
0.00 0.00 0.00 0.00 0.00 0.00 0.00 0.00 0.00 0.00 0.00 0.00 0.00 0.00 0.00 0.00 0.00 0.00 0.00 0.00 0.00 0.00 0.00 0.00 0.00 0.00 0.00 0.00 0.00 0.00 0.00 0.00 0.00 0.00 0.00 0.00 0.00 0.00 0.00 0.00 0.02 0.04 0.00 0.00 0.00 0.00 0.00 0.00 0.00
0.00 0.00 0.00 0.00 0.00 0.00 0.00 0.00 0.00 0.00 0.00 0.00 0.00 0.00 0.00 0.00 0.00 0.00 0.00 0.00 0.00 0.00 0.00 0.00 0.00 0.00 0.00 0.00 0.00 0.00 0.00 0.00 0.00 0.00 0.00 0.00 0.01 0.00 0.00 0.02 0.03 0.00 0.00 0.00 0.00 0.00 0.00 0.00 0.00
0.00 0.00 0.00 0.00 0.00 0.00 0.00 0.00 0.00 0.00 0.00 0.00 0.00 0.00 0.00 0.00 0.00 0.00 0.00 0.00 0.00 0.00 0.00 0.00 0.00 0.00 0.00 0.00 0.00 0.00 0.00 0.00 0.00 0.00 0.00 0.00 0.10 0.18 0.10 0.04 0.03 0.02 0.00 0.00 0.00 0.00 0.00 0.00 0.00
0.00 0.00 0.00 0.00 0.00 0.00 0.00 0.00 0.00 0.00 0.00 0.00 0.00 0.00 0.00 0.00 0.00 0.00 0.00 0.00 0.00 0.00 0.00 0.00 0.00 0.00 0.00 0.00 0.00 0.00 0.00 0.00 0.00 0.00 0.00 0.02 0.10 0.21 0.08 0.04 0.04 0.04 0.01 0.00 0.00 0.00 0.00 0.00 0.00
0.00 0.00 0.00 0.00 0.00 0.00 0.00 0.00 0.00 0.00 0.00 0.00 0.00 0.00 0.00 0.00 0.00 0.00 0.00 0.00 0.00 0.00 0.00 0.00 0.00 0.00 0.00 0.00 0.00 0.00 0.00 0.00 0.00 0.00 0.01 0.02 0.04 0.08 0.19 0.02 0.01 0.07 0.07 0.02 0.00 0.00 0.00 0.00 0.00
0.00 0.00 0.00 0.00 0.00 0.00 0.00 0.00 0.00 0.00 0.00 0.00 0.00 0.00 0.00 0.00 0.00 0.00 0.00 0.00 0.00 0.00 0.00 0.00 0.00 0.00 0.00 0.00 0.00 0.00 0.00 0.01 0.02 0.00 0.01 0.09 0.18 0.16 0.08 0.01 0.02 0.05 0.12 0.08 0.01 0.01 0.04 0.00 0.00
0.00 0.00 0.00 0.00 0.00 0.00 0.00 0.00 0.00 0.00 0.00 0.00 0.00 0.00 0.00 0.00 0.00 0.00 0.00 0.00 0.00 0.00 0.00 0.00 0.00 0.00 0.00 0.00 0.00 0.00 0.00 0.01 0.00 0.00 0.01 0.08 0.12 0.11 0.10 0.16 0.08 0.02 0.08 0.11 0.03 0.00 0.00 0.00 0.00
0.00 0.00 0.00 0.00 0.00 0.00 0.00 0.00 0.00 0.00 0.00 0.00 0.00 0.00 0.00 0.00 0.00 0.00 0.00 0.00 0.00 0.00 0.00 0.00 0.00 0.00 0.00 0.00 0.00 0.00 0.00 0.00 0.00 0.00 0.00 0.05 0.10 0.11 0.04 0.10 0.11 0.05 0.00 0.06 0.06 0.03 0.00 0.00 0.00
0.00 0.00 0.00 0.00 0.00 0.00 0.00 0.00 0.00 0.00 0.00 0.00 0.00 0.00 0.00 0.00 0.00 0.00 0.00 0.00 0.00 0.00 0.00 0.00 0.00 0.00 0.00 0.00 0.00 0.00 0.00 0.00 0.00 0.00 0.07 0.12 0.05 0.05 0.00 0.00 0.03 0.04 0.01 0.00 0.00 0.00 0.00 0.00 0.00
0.00 0.00 0.00 0.00 0.00 0.00 0.00 0.00 0.00 0.00 0.00 0.00 0.00 0.00 0.00 0.00 0.00 0.00 0.00 0.00 0.00 0.00 0.00 0.00 0.00 0.00 0.00 0.00 0.00 0.00 0.00 0.00 0.00 0.00 0.03 0.15 0.07 0.00 0.00 0.00 0.00 0.01 0.02 0.00 0.00 0.00 0.00 0.00 0.00
0.00 0.00 0.00 0.00 0.00 0.00 0.00 0.00 0.00 0.00 0.00 0.00 0.00 0.00 0.00 0.00 0.00 0.00 0.00 0.00 0.00 0.00 0.00 0.00 0.00 0.00 0.00 0.00 0.00 0.00 0.00 0.00 0.00 0.00 0.00 0.04 0.00 0.01 0.04 0.02 0.05 0.14 0.12 0.11 0.01 0.00 0.00 0.00 0.00
0.00 0.00 0.00 0.00 0.00 0.00 0.00 0.00 0.00 0.00 0.00 0.00 0.00 0.00 0.00 0.00 0.00 0.00 0.00 0.00 0.00 0.00 0.00 0.00 0.00 0.00 0.00 0.00 0.00 0.00 0.00 0.00 0.00 0.00 0.00 0.00 0.00 0.02 0.17 0.08 0.09 0.13 0.18 0.11 0.12 0.16 0.08 0.06 0.07
0.00 0.00 0.00 0.00 0.00 0.00 0.00 0.00 0.00 0.00 0.00 0.00 0.00 0.00 0.00 0.00 0.00 0.00 0.00 0.00 0.00 0.00 0.00 0.00 0.00 0.00 0.00 0.00 0.00 0.00 0.00 0.00 0.00 0.00 0.00 0.00 0.00 0.01 0.08 0.01 0.03 0.07 0.01 0.00 0.01 0.08 0.19 0.14 0.21
0.00 0.00 0.00 0.00 0.00 0.00 0.00 0.00 0.00 0.00 0.00 0.00 0.00 0.00 0.00 0.00 0.00 0.00 0.00 0.00 0.00 0.00 0.00 0.00 0.00 0.00 0.00 0.00 0.00 0.00 0.00 0.00 0.00 0.00 0.00 0.00 0.00 0.00 0.01 0.04 0.08 0.08 0.01 0.00 0.02 0.14 0.02 0.10 0.15
0.00 0.00 0.00 0.00 0.00 0.00 0.00 0.00 0.00 0.00 0.00 0.00 0.00 0.00 0.00 0.00 0.00 0.00 0.00 0.00 0.00 0.00 0.00 0.00 0.00 0.00 0.00 0.00 0.00 0.00 0.00 0.00 0.00 0.00 0.00 0.00 0.00 0.00 0.00 0.01 0.04 0.12 0.12 0.03 0.05 0.02 0.00 0.00 0.10
0.00 0.00 0.00 0.00 0.00 0.00 0.00 0.00 0.00 0.00 0.00 0.00 0.00 0.00 0.00 0.00 0.00 0.00 0.00 0.00 0.00 0.00 0.00 0.00 0.00 0.00 0.00 0.00 0.00 0.00 0.00 0.00 0.00 0.00 0.00 0.00 0.00 0.00 0.00 0.00 0.00 0.07 0.10 0.11 0.07 0.04 0.04 0.00 0.00
0.00 0.00 0.00 0.00 0.00 0.00 0.00 0.00 0.00 0.00 0.00 0.00 0.00 0.00 0.00 0.00 0.00 0.00 0.00 0.00 0.00 0.00 0.00 0.00 0.00 0.00 0.00 0.00 0.00 0.00 0.00 0.01 0.04 0.03 0.01 0.00 0.00 0.00 0.00 0.00 0.00 0.02 0.05 0.05 0.07 0.02 0.04 0.00 0.00
0.00 0.00 0.00 0.00 0.00 0.00 0.00 0.00 0.00 0.00 0.00 0.00 0.00 0.00 0.00 0.00 0.00 0.00 0.00 0.00 0.00 0.00 0.00 0.00 0.00 0.00 0.00 0.00 0.00 0.00 0.00 0.01 0.01 0.02 0.01 0.00 0.00 0.00 0.00 0.00 0.00 0.08 0.02 0.04 0.03 0.00 0.00 0.01 0.00
0.00 0.00 0.00 0.00 0.00 0.00 0.00 0.00 0.00 0.00 0.00 0.00 0.00 0.00 0.00 0.00 0.00 0.00 0.00 0.00 0.00 0.00 0.00 0.00 0.00 0.00 0.00 0.00 0.00 0.00 0.00 0.00 0.00 0.00 0.00 0.00 0.00 0.00 0.00 0.00 0.04 0.10 0.03 0.01 0.01 0.00 0.00 0.00 0.01
0.00 0.00 0.00 0.00 0.00 0.00 0.00 0.00 0.00 0.00 0.00 0.00 0.00 0.00 0.00 0.00 0.00 0.00 0.00 0.00 0.00 0.00 0.00 0.00 0.00 0.00 0.00 0.00 0.00 0.00 0.00 0.00 0.00 0.04 0.03 0.00 0.00 0.00 0.00 0.00 0.01 0.01 0.00 0.00 0.01 0.04 0.00 0.00 0.00
0.00 0.00 0.00 0.00 0.00 0.00 0.00 0.00 0.00 0.00 0.00 0.00 0.00 0.00 0.00 0.00 0.00 0.00 0.00 0.00 0.00 0.00 0.00 0.00 0.00 0.00 0.00 0.00 0.00 0.00 0.00 0.00 0.02 0.05 0.01 0.00 0.00 0.00 0.00 0.00 0.00 0.00 0.00 0.01 0.03 0.04 0.00 0.00 0.00
0.00 0.00 0.00 0.00 0.00 0.00 0.00 0.00 0.00 0.00 0.00 0.00 0.00 0.00 0.00 0.00 0.00 0.00 0.00 0.00 0.00 0.00 0.00 0.00 0.00 0.00 0.00 0.00 0.00 0.00 0.00 0.01 0.00 0.00 0.00 0.00 0.00 0.00 0.01 0.07 0.05 0.06 0.08 0.02 0.00 0.00 0.00 0.00 0.00
0.00 0.00 0.00 0.00 0.00 0.00 0.00 0.00 0.00 0.00 0.00 0.00 0.00 0.00 0.00 0.00 0.00 0.00 0.00 0.00 0.00 0.00 0.00 0.00 0.00 0.00 0.00 0.00 0.00 0.00 0.00 0.00 0.00 0.00 0.00 0.01 0.00 0.00 0.09 0.13 0.03 0.04 0.03 0.06 0.01 0.00 0.00 0.00 0.00
0.00 0.00 0.00 0.00 0.00 0.00 0.00 0.00 0.00 0.00 0.00 0.00 0.00 0.00 0.00 0.00 0.00 0.00 0.00 0.00 0.00 0.00 0.00 0.00 0.00 0.00 0.00 0.00 0.00 0.00 0.00 0.00 0.00 0.00 0.00 0.00 0.00 0.07 0.12 0.09 0.10 0.07 0.13 0.11 0.07 0.00 0.00 0.00 0.01
0.00 0.00 0.00 0.00 0.00 0.00 0.00 0.00 0.00 0.00 0.00 0.00 0.00 0.00 0.00 0.00 0.00 0.00 0.00 0.00 0.00 0.00 0.00 0.00 0.00 0.00 0.00 0.00 0.00 0.00 0.00 0.00 0.00 0.00 0.00 0.00 0.04 0.10 0.09 0.11 0.15 0.09 0.10 0.09 0.11 0.02 0.02 0.06 0.05
0.00 0.00 0.00 0.00 0.00 0.00 0.00 0.00 0.00 0.00 0.00 0.00 0.00 0.00 0.00 0.00 0.00 0.00 0.00 0.00 0.00 0.00 0.00 0.00 0.00 0.00 0.00 0.00 0.00 0.00 0.00 0.00 0.00 0.00 0.00 0.00 0.07 0.06 0.10 0.05 0.09 0.06 0.08 0.11 0.12 0.07 0.07 0.13 0.10
MSLP
1009.17 1009.09 1008.63 1007.87 1006.55 1005.95 1007.11 1009.06 1010.23 1010.67 1011.45 1011.73 1011.96 1012.17 1012.16 1012.21 1011.80 1012.87 1014.03 1014.73 1014.99 1015.35 1016.07 1016.65 1017.09 1017.27 1017.48 1017.73 1017.89 1018.20 1018.31 1018.44 1018.53 1018.53 1018.61 1018.72 1018.87 1018.77 1018.74 1018.78 1018.83 1018.87 1018.85 1018.88 1019.11 1019.08 1019.36 1019.43 1019.61
1008.10 1008.55 1007.81 1005.38 1004.66 1005.45 1007.55 1008.81 1009.84 1010.76 1011.20 1012.08 1012.29 1012.71 1012.46 1012.67 1013.19 1013.96 1014.61 1015.15 1015.30 1015.39 1015.94 1016.46 1017.45 1017.55 1017.85 1018.14 1018.28 1018.39 1018.61 1018.71 1018.80 1018.87 1018.91 1018.97 1019.06 1019.09 1019.03 1018.98 1019.24 1019.22 1019.19 1019.27 1019.43 1019.41 1019.69 1019.95 1019.94
1008.18 1007.92 1005.56 1004.71 1004.64 1005.44 1007.26 1008.68 1009.71 1010.76 1011.28 1011.89 1012.46 1012.95 1012.51 1013.32 1013.92 1014.08 1014.76 1015.31 1015.63 1015.91 1016.31 1017.04 1017.82 1017.99 1018.22 1018.35 1018.56 1018.67 1018.89 1019.04 1019.15 1019.14 1019.23 1019.27 1019.24 1019.23 1019.35 1019.41 1019.46 1019.40 1019.64 1019.50 1019.60 1019.62 1019.95 1020.14 1020.22
1006.83 1006.26 1004.90 1004.28 1005.35 1006.28 1007.10 1008.24 1009.60 1010.15 1011.02 1011.70 1012.33 1013.04 1013.59 1013.60 1014.01 1014.73 1015.10 1015.15 1015.55 1015.64 1015.80 1017.74 1018.02 1018.30 1018.46 1018.64 1018.76 1018.95 1019.12 1019.29 1019.35 1019.46 1019.51 1019.57 1019.63 1019.64 1019.60 1019.51 1019.50 1019.59 1019.66 1019.84 1019.78 1019.95 1020.09 1020.26 1020.51
1006.22 1004.32 1004.10 1004.92 1005.93 1006.70 1007.54 1008.30 1008.99 1009.47 1010.31 1011.04 1011.76 1012.57 1013.89 1014.58 1014.39 1014.92 1015.21 1015.28 1015.58 1015.37 1016.23 1017.56 1018.17 1018.45 1018.64 1018.92 1019.00 1019.09 1019.31 1019.53 1019.60 1019.63 1019.75 1019.81 1019.82 1019.92 1019.89 1019.84 1019.85 1019.84 1019.93 1019.99 1020.09 1020.29 1020.42 1020.56 1020.69
1004.38 1003.66 1003.63 1004.90 1006.32 1007.19 1007.80 1008.35 1008.64 1009.20 1009.96 1010.87 1011.27 1012.00 1013.38 1014.29 1014.44 1014.85 1015.47 1015.69 1015.68 1016.03 1016.56 1017.37 1018.41 1018.65 1018.92 1018.99 1019.27 1019.30 1019.54 1019.78 1019.86 1019.83 1019.95 1019.92 1019.91 1020.00 1020.10 1020.04 1019.98 1020.01 1020.02 1020.20 1020.30 1020.45 1020.66 1020.78 1020.93
1003.64 1003.35 1004.04 1005.13 1006.40 1007.30 1007.94 1008.37 1008.54 1008.92 1009.46 1009.97 1010.67 1011.03 1012.92 1013.70 1014.19 1014.82 1015.59 1015.97 1016.37 1016.49 1016.51 1017.30 1017.96 1018.68 1019.05 1019.21 1019.41 1019.50 1019.68 1019.87 1020.00 1020.00 1019.97 1019.95 1019.89 1019.94 1020.06 1020.16 1020.14 1020.09 1020.15 1020.26 1020.48 1020.65 1020.79 1020.94 1021.02
1003.90 1003.77 1004.14 1004.90 1005.85 1007.26 1008.02 1008.28 1008.68 1008.86 1009.34 1010.54 1010.46 1010.92 1012.06 1013.22 1014.19 1014.98 1015.79 1016.34 1016.71 1016.43 1017.06 1017.35 1017.70 1018.16 1018.61 1019.11 1019.40 1019.56 1019.67 1019.88 1020.00 1019.96 1019.86 1019.94 1019.81 1019.86 1019.89 1020.05 1020.14 1020.22 1020.20 1020.35 1020.55 1020.81 1021.00 1021.10 1021.20
1004.09 1003.18 1003.88 1004.89 1005.38 1007.01 1007.85 1008.25 1008.78 1009.16 1009.62 1009.73 1010.36 1010.47 1011.62 1013.30 1013.99 1014.74 1015.32 1015.83 1016.54 1016.64 1016.78 1017.07 1017.60 1017.85 1018.40 1018.65 1018.78 1019.47 1019.61 1019.82 1019.88 1019.70 1019.73 1019.69 1019.16 1019.65 1019.66 1019.71 1020.02 1020.30 1020.29 1020.49 1020.62 1020.84 1021.05 1021.16 1021.30
1002.75 1003.21 1004.16 1004.97 1005.65 1006.68 1007.42 1008.07 1008.69 1009.04 1009.39 1010.00 1010.45 1011.06 1012.18 1013.25 1013.80 1014.14 1014.99 1015.58 1016.31 1016.89 1017.03 1017.13 1016.96 1017.49 1017.81 1018.10 1018.43 1018.78 1018.56 1018.60 1018.87 1018.79 1019.05 1019.60 1019.66 1019.81 1019.53 1019.61 1020.09 1020.23 1020.45 1020.53 1020.71 1020.89 1021.13 1021.12 1020.13
1003.04 1003.57 1004.40 1005.23 1005.66 1006.42 1007.30 1007.95 1008.61 1008.74 1008.93 1009.41 1010.16 1011.20 1012.19 1012.85 1013.46 1013.87 1014.49 1015.50 1015.93 1016.52 1016.94 1016.93 1017.09 1017.43 1017.61 1017.97 1018.49 1018.83 1018.20 1018.77 1018.55 1019.14 1019.15 1019.24 1019.49 1019.66 1019.75 1019.76 1019.69 1019.54 1020.36 1020.45 1020.60 1020.75 1020.30 1019.84 1019.55
1003.28 1004.05 1004.46 1005.28 1006.11 1006.48 1007.04 1007.78 1008.24 1008.46 1008.31 1009.01 1010.00 1011.01 1011.80 1012.36 1012.77 1013.15 1013.79 1014.78 1015.57 1016.41 1016.46 1016.73 1017.02 1017.81 1018.01 1018.07 1018.21 1018.05 1017.96 1018.29 1018.29 1018.68 1019.07 1019.20 1019.52 1019.50 1019.33 1019.71 1019.84 1019.69 1019.30 1020.26 1020.27 1020.15 1019.85 1020.02 1020.19
1003.07 1004.05 1004.63 1005.33 1006.13 1006.51 1007.08 1007.49 1007.95 1008.60 1008.87 1009.36 1010.20 1011.28 1011.75 1012.12 1012.56 1012.92 1013.37 1014.29 1015.21 1015.80 1016.19 1016.48 1016.97 1017.59 1017.93 1018.35 1018.01 1018.02 1018.06 1018.18 1018.09 1018.49 1018.75 1019.26 1019.25 1019.04 1018.87 1019.20 1019.23 1019.51 1019.42 1019.63 1019.73 1019.94 1020.10 1020.26 1020.15
1003.69 1004.00 1004.85 1005.46 1006.03 1006.56 1006.91 1007.52 1007.92 1008.80 1009.15 1009.73 1010.44 1011.08 1011.46 1011.71 1012.18 1012.66 1013.11 1013.65 1014.54 1015.19 1015.67 1015.97 1016.55 1017.19 1017.75 1018.09 1018.24 1017.95 1018.09 1018.07 1018.26 1018.30 1018.45 1019.15 1019.36 1018.99 1018.68 1019.11 1018.93 1019.36 1019.39 1019.25 1019.48 1019.86 1019.88 1019.85 1019.78
1003.79 1004.10 1004.91 1005.45 1006.00 1006.54 1006.84 1007.53 1007.65 1008.50 1009.25 1009.85 1010.42 1010.89 1011.22 1011.49 1011.92 1012.34 1012.86 1013.36 1013.99 1014.57 1015.07 1015.50 1016.13 1016.55 1017.40 1017.67 1017.97 1017.99 1017.89 1017.69 1017.95 1018.14 1018.46 1018.69 1019.01 1019.04 1018.97 1018.63 1018.90 1019.34 1019.42 1019.50 1019.42 1019.87 1019.83 1019.67 1019.60
1003.55 1003.85 1004.00 1005.29 1005.79 1006.35 1006.64 1006.03 1007.01 1008.38 1008.97 1009.57 1010.16 1010.62 1010.98 1011.21 1011.63 1012.16 1012.67 1013.10 1013.62 1014.02 1014.87 1015.47 1015.75 1016.03 1016.89 1017.16 1017.69 1017.57 1017.73 1017.65 1017.74 1017.99 1018.29 1018.62 1018.90 1019.09 1019.01 1018.81 1018.74 1019.31 1019.49 1019.48 1019.52 1019.37 1019.67 1019.77 1019.56
1003.16 1002.55 1003.47 1004.55 1005.19 1005.71 1006.18 1005.61 1006.70 1007.92 1008.42 1009.03 1009.57 1010.07 1010.60 1010.97 1011.44 1011.92 1012.43 1012.94 1013.23 1014.00 1014.79 1015.31 1015.69 1015.87 1016.31 1016.98 1017.22 1017.41 1017.61 1017.51 1017.37 1017.61 1017.76 1018.20 1018.72 1018.70 1018.86 1018.46 1018.47 1019.02 1018.61 1018.49 1018.80 1019.37 1019.81 1020.25 1020.29
1002.14 1002.50 1003.09 1003.25 1004.24 1004.98 1005.29 1005.41 1006.46 1007.24 1007.57 1008.10 1008.75 1009.38 1009.99 1010.42 1010.92 1011.42 1012.03 1012.52 1012.94 1013.56 1014.45 1015.09 1015.34 1015.92 1016.44 1016.66 1017.17 1016.95 1017.05 1017.14 1017.21 1017.37 1017.50 1018.13 1018.24 1018.54 1018.45 1018.11 1018.49 1018.70 1018.28 1018.43 1018.63 1019.25 1019.84 1019.97 1020.22
1002.34 1002.38 1002.52 1003.14 1003.64 1004.14 1004.17 1004.44 1005.70 1006.60 1006.99 1007.21 1007.58 1008.44 1009.10 1009.60 1010.09 1010.63 1011.46 1012.03 1012.56 1013.16 1013.83 1014.51 1015.11 1015.63 1016.28 1016.51 1016.49 1016.61 1016.60 1016.74 1017.03 1017.15 1017.91 1017.95 1018.10 1018.27 1018.23 1017.85 1018.53 1018.61 1018.79 1018.66 1018.97 1019.01 1019.86 1020.32 1020.07
1002.16 1002.02 1001.99 1002.73 1003.45 1003.78 1003.33 1003.72 1004.21 1005.67 1005.98 1006.26 1006.60 1007.25 1007.90 1008.60 1009.20 1010.02 1010.75 1011.38 1012.05 1012.66 1013.28 1014.02 1014.70 1015.35 1015.89 1015.84 1016.05 1016.17 1016.39 1016.51 1016.55 1016.86 1017.51 1017.60 1017.82 1017.88 1017.83 1017.68 1017.84 1018.25 1018.39 1018.61 1018.76 1018.94 1019.02 1019.94 1019.40
1001.62 1001.47 1001.80 1002.41 1003.09 1003.33 1003.29 1002.74 1003.23 1004.46 1005.38 1005.80 1006.15 1006.49 1007.02 1007.56 1008.15 1008.89 1009.76 1010.47 1011.23 1011.98 1012.68 1013.30 1014.11 1014.73 1015.32 1015.40 1015.85 1016.25 1016.44 1016.76 1016.67 1016.74 1017.18 1017.70 1017.56 1017.54 1017.63 1017.65 1017.75 1017.90 1018.06 1018.24 1018.64 1018.65 1018.76 1018.49 1018.89
1000.85 1001.61 1002.17 1002.39 1002.33 1001.50 1002.59 1001.06 1002.05 1002.86 1004.08 1004.76 1005.28 1005.67 1005.91 1006.60 1007.36 1007.88 1008.52 1009.42 1010.16 1010.85 1011.65 1012.54 1013.49 1014.35 1015.01 1015.43 1015.39 1015.56 1015.50 1015.60 1015.90 1016.12 1016.49 1016.93 1017.09 1017.15 1017.43 1017.46 1017.57 1017.91 1017.30 1017.76 1018.12 1018.26 1018.26 1018.48 1018.29
1001.29 1001.89 1001.95 1002.04 1001.56 1001.43 1001.19 1001.23 1000.80 1001.80 1002.55 1003.20 1003.97 1004.49 1005.00 1005.67 1006.31 1006.86 1007.32 1008.01 1009.00 1009.90 1010.72 1011.64 1012.93 1013.83 1014.34 1014.95 1015.10 1015.61 1015.62 1015.47 1015.59 1015.98 1016.38 1016.49 1016.72 1017.02 1017.04 1017.12 1017.25 1017.58 1017.30 1017.72 1017.87 1018.17 1018.41 1018.32 1018.22
1001.82 1002.00 1001.79 1001.55 1000.96 1000.14 999.80 1000.37 999.04 1000.27 1000.68 1001.11 1002.17 1003.06 1003.92 1004.56 1005.34 1006.06 1006.67 1007.34 1008.10 1009.10 1010.14 1011.07 1012.40 1013.57 1014.30 1014.97 1015.27 1015.42 1015.49 1015.49 1015.44 1015.74 1015.87 1015.93 1015.95 1016.27 1016.66 1016.68 1016.84 1017.07 1017.16 1017.55 1017.63 1018.07 1018.31 1018.43 1018.43
1001.93 1001.10 1000.30 1000.05 999.66 999.08 999.69 999.73 998.10 999.12 999.66 1000.13 1000.38 1001.67 1002.87 1003.93 1004.51 1005.11 1005.80 1006.62 1007.62 1008.72 1009.91 1010.84 1011.95 1012.99 1013.91 1014.55 1014.86 1015.26 1015.61 1015.86 1015.85 1015.95 1015.36 1015.03 1015.27 1015.53 1016.00 1016.32 1016.68 1017.00 1017.19 1017.30 1017.49 1017.83 1017.92 1018.20 1018.27
1000.91 1000.46 999.58 998.99 998.57 998.37 999.56 998.71 997.93 998.67 999.23 999.56 1000.00 1000.24 1001.76 1002.86 1003.63 1004.31 1005.15 1006.19 1007.33 1008.51 1009.58 1010.45 1011.58 1012.57 1013.40 1014.03 1014.45 1014.84 1015.28 1015.58 1015.62 1015.66 1015.11 1014.95 1014.71 1015.01 1015.48 1016.05 1016.22 1016.50 1017.02 1017.28 1017.27 1017.52 1017.69 1017.85 1018.06
1000.17 1000.45 999.80 999.12 998.84 999.10 998.43 998.02 997.90 997.68 998.36 998.73 999.33 999.94 1000.72 1001.82 1002.67 1003.62 1004.59 1005.68 1006.71 1007.92 1009.05 1010.08 1011.21 1012.09 1012.74 1013.34 1014.11 1014.50 1014.90 1015.13 1014.92 1015.24 1015.56 1015.19 1015.25 1015.17 1015.75 1016.02 1016.12 1016.29 1016.28 1016.74 1017.01 1017.02 1017.34 1017.66 1017.93
1000.38 999.86 999.79 999.56 998.75 998.15 997.71 997.64 997.32 997.40 997.73 997.62 997.89 999.28 999.83 1001.10 1002.14 1002.94 1003.90 1004.84 1005.85 1007.04 1008.43 1009.59 1010.60 1011.28 1011.89 1012.33 1013.10 1013.72 1014.18 1014.67 1014.85 1015.12 1015.35 1015.22 1015.37 1015.71 1015.90 1016.09 1016.12 1016.37 1016.44 1016.57 1016.91 1016.75 1017.07 1017.39 1017.56
1000.31 999.87 999.49 998.69 998.26 997.80 997.32 996.65 996.57 997.27 997.39 997.48 998.00 998.82 999.61 1000.37 1001.41 1002.31 1003.13 1004.17 1005.14 1006.45 1007.76 1008.98 1010.05 1010.87 1011.50 1012.03 1012.66 1013.03 1013.55 1014.09 1014.56 1014.48 1014.91 1015.26 1015.37 1015.69 1015.76 1016.04 1016.12 1016.16 1016.35 1016.56 1016.78 1016.94 1016.98 1017.14 1017.35
998.61 998.71 998.71 998.35 998.20 998.22 997.57 996.70 996.46 996.70 997.04 997.14 997.90 998.40 999.36 1000.05 1000.96 1001.77 1002.59 1003.67 1004.67 1006.25 1007.41 1008.45 1009.55 1010.25 1011.25 1011.47 1012.03 1012.82 1013.22 1013.55 1014.05 1014.20 1014.49 1014.89 1015.25 1015.41 1015.73 1015.84 1016.02 1016.06 1016.28 1016.44 1016.64 1016.79 1016.79 1016.97 1017.13
Thickness
5816 5816 5821 5814 5797 5800 5772 5761 5769 5762 5758 5774 5777 5770 5769 5773 5774 5757 5782 5781 5780 5777 5772 5769 5765 5765 5763 5760 5759 5757 5756 5755 5753 5751 5749 5746 5744 5746 5745 5744 5742 5741 5741 5742 5741 5743 5741 5740 5736
5829 5823 5822 5827 5802 5778 5765 5779 5764 5766 5774 5773 5774 5767 5768 5762 5776 5771 5771 5778 5777 5777 5775 5772 5765 5764 5761 5759 5758 5756 5756 5756 5754 5753 5750 5748 5746 5746 5745 5744 5742 5742 5741 5743 5742 5744 5741 5739 5739
5833 5832 5827 5814 5804 5780 5766 5777 5773 5773 5779 5772 5766 5771 5775 5762 5772 5775 5779 5778 5775 5774 5772 5769 5764 5762 5760 5759 5759 5757 5756 5756 5755 5754 5751 5749 5748 5747 5745 5745 5743 5744 5742 5743 5744 5744 5742 5740 5740
5837 5835 5839 5809 5785 5794 5789 5788 5780 5779 5780 5779 5773 5757 5771 5782 5776 5775 5777 5778 5777 5777 5777 5765 5764 5762 5761 5760 5760 5759 5757 5756 5755 5754 5752 5749 5746 5746 5746 5746 5746 5744 5744 5743 5744 5744 5743 5743 5741
5844 5845 5813 5796 5790 5799 5799 5798 5794 5784 5782 5781 5781 5765 5756 5770 5782 5779 5778 5779 5777 5780 5775 5767 5765 5764 5761 5760 5761 5759 5757 5756 5755 5755 5753 5751 5748 5746 5746 5746 5747 5746 5744 5744 5744 5743 5743 5743 5742
5836 5846 5811 5790 5788 5798 5801 5804 5799 5790 5788 5781 5779 5775 5766 5777 5778 5778 5776 5775 5777 5777 5774 5770 5765 5764 5762 5760 5760 5759 5756 5755 5754 5755 5753 5753 5751 5748 5747 5747 5747 5748 5747 5745 5745 5744 5743 5743 5743
5837 5831 5809 5803 5791 5791 5796 5811 5798 5793 5789 5786 5792 5775 5774 5776 5782 5780 5774 5771 5770 5773 5777 5772 5769 5764 5763 5761 5760 5759 5757 5755 5754 5754 5754 5754 5754 5752 5751 5749 5750 5750 5749 5748 5747 5747 5746 5744 5744
5846 5835 5813 5813 5799 5786 5806 5808 5810 5800 5793 5800 5801 5771 5768 5781 5785 5783 5778 5774 5772 5775 5774 5773 5772 5769 5767 5764 5762 5761 5759 5757 5755 5755 5756 5756 5757 5756 5755 5753 5752 5751 5751 5750 5748 5748 5747 5746 5746
5857 5827 5809 5807 5808 5799 5814 5803 5813 5815 5799 5804 5801 5799 5796 5789 5788 5783 5778 5776 5773 5776 5778 5777 5774 5773 5770 5768 5767 5763 5761 5759 5757 5758 5757 5759 5762 5760 5758 5758 5755 5752 5753 5751 5750 5749 5748 5748 5747
5851 5824 5815 5830 5827 5812 5816 5811 5807 5803 5799 5794 5797 5803 5799 5791 5786 5783 5776 5772 5771 5769 5774 5777 5780 5777 5775 5773 5771 5769 5769 5769 5766 5766 5763 5761 5760 5759 5760 5761 5757 5755 5753 5752 5751 5750 5749 5750 5757
5849 5822 5832 5830 5834 5830 5817 5813 5815 5805 5795 5803 5795 5797 5797 5795 5790 5786 5784 5777 5777 5777 5777 5781 5780 5778 5777 5774 5771 5768 5773 5768 5770 5765 5765 5764 5763 5762 5761 5761 5761 5762 5756 5755 5753 5752 5756 5760 5763
5833 5841 5840 5834 5833 5827 5817 5822 5811 5813 5815 5823 5816 5811 5806 5798 5798 5797 5793 5787 5782 5778 5783 5784 5782 5776 5775 5774 5773 5775 5776 5774 5773 5770 5766 5766 5764 5764 5765 5762 5761 5762 5765 5758 5758 5759 5762 5760 5759
5843 5840 5842 5840 5833 5831 5829 5818 5815 5811 5821 5824 5817 5808 5805 5804 5803 5805 5804 5799 5793 5787 5787 5787 5784 5779 5777 5773 5775 5775 5776 5774 5775 5773 5771 5767 5767 5768 5770 5766 5765 5764 5765 5763 5763 5762 5761 5760 5761
5849 5847 5839 5838 5832 5830 5821 5818 5820 5814 5823 5816 5812 5807 5809 5810 5808 5807 5806 5803 5799 5795 5792 5794 5789 5784 5779 5776 5775 5777 5775 5775 5774 5774 5774 5768 5767 5770 5771 5768 5768 5766 5767 5768 5766 5764 5764 5764 5765
5853 5833 5836 5834 5832 5823 5831 5805 5810 5823 5821 5810 5808 5809 5810 5812 5812 5808 5808 5805 5804 5801 5800 5797 5793 5789 5782 5780 5777 5776 5777 5778 5776 5775 5773 5771 5769 5769 5769 5772 5770 5767 5767 5767 5768 5764 5764 5766 5766
5840 5841 5819 5831 5834 5832 5828 5808 5825 5827 5820 5811 5811 5811 5811 5813 5813 5813 5812 5809 5808 5804 5798 5797 5796 5793 5786 5784 5779 5779 5778 5777 5777 5776 5774 5773 5770 5767 5767 5770 5772 5768 5766 5767 5766 5767 5766 5767 5769
5839 5829 5824 5824 5843 5833 5826 5819 5831 5832 5826 5817 5816 5814 5813 5812 5813 5814 5813 5811 5810 5804 5797 5794 5794 5793 5791 5784 5782 5780 5778 5778 5778 5778 5777 5774 5771 5771 5769 5774 5775 5771 5773 5773 5772 5768 5765 5760 5761
5826 5829 5833 5830 5840 5837 5827 5827 5830 5833 5832 5825 5823 5820 5815 5815 5813 5817 5815 5814 5812 5808 5801 5796 5795 5790 5787 5786 5781 5782 5781 5779 5779 5778 5778 5774 5773 5772 5773 5776 5774 5772 5774 5773 5771 5767 5762 5764 5762
5844 5839 5834 5842 5853 5839 5836 5837 5831 5833 5833 5831 5831 5825 5821 5819 5826 5826 5821 5818 5814 5810 5804 5799 5794 5791 5786 5783 5782 5781 5780 5782 5781 5779 5775 5774 5772 5772 5774 5779 5774 5773 5769 5770 5768 5768 5761 5758 5763
5843 5838 5839 5847 5850 5842 5845 5837 5849 5838 5837 5839 5837 5833 5830 5828 5828 5826 5824 5820 5815 5810 5807 5802 5796 5792 5788 5789 5787 5786 5784 5784 5784 5782 5778 5778 5775 5776 5778 5780 5779 5773 5772 5769 5767 5767 5767 5762 5770
5844 5841 5840 5833 5841 5847 5839 5837 5844 5847 5844 5844 5845 5846 5840 5835 5831 5830 5827 5824 5820 5812 5808 5806 5802 5798 5794 5794 5790 5786 5785 5782 5782 5784 5782 5779 5780 5780 5780 5781 5779 5778 5778 5773 5770 5771 5770 5772 5773
5837 5854 5844 5836 5833 5829 5847 5826 5843 5852 5840 5843 5844 5846 5848 5844 5842 5839 5836 5830 5826 5823 5820 5814 5808 5801 5796 5793 5792 5789 5789 5785 5788 5789 5789 5787 5784 5783 5782 5783 5782 5779 5782 5779 5776 5777 5777 5775 5772
5838 5850 5844 5841 5840 5839 5843 5830 5853 5858 5842 5846 5849 5851 5852 5852 5849 5845 5845 5843 5838 5834 5827 5822 5812 5805 5802 5798 5795 5788 5787 5791 5793 5792 5789 5790 5789 5786 5786 5787 5787 5783 5784 5781 5780 5778 5774 5776 5773
5849 5839 5841 5844 5844 5821 5852 5838 5857 5852 5859 5866 5865 5861 5859 5858 5856 5853 5854 5850 5844 5841 5832 5825 5814 5804 5800 5794 5792 5790 5789 5789 5790 5790 5791 5793 5796 5795 5791 5791 5790 5788 5786 5782 5781 5778 5776 5774 5773
5835 5833 5814 5811 5819 5822 5851 5836 5866 5877 5882 5878 5878 5871 5867 5863 5861 5858 5853 5850 5846 5839 5831 5825 5816 5807 5802 5797 5795 5792 5788 5787 5786 5786 5793 5798 5798 5798 5797 5795 5792 5789 5786 5784 5782 5779 5779 5776 5774
5830 5835 5823 5794 5815 5837 5845 5828 5861 5886 5890 5891 5888 5889 5877 5869 5868 5864 5859 5854 5846 5839 5833 5827 5816 5808 5804 5800 5797 5796 5794 5790 5789 5789 5796 5799 5802 5803 5802 5796 5794 5792 5787 5784 5782 5782 5780 5779 5776
5830 5812 5854 5835 5847 5820 5843 5860 5882 5895 5887 5889 5885 5884 5879 5875 5873 5868 5864 5858 5852 5843 5836 5828 5819 5812 5808 5804 5798 5796 5795 5793 5795 5794 5793 5795 5798 5801 5797 5794 5795 5793 5792 5788 5787 5786 5782 5780 5777
5828 5852 5815 5826 5794 5796 5832 5835 5842 5867 5874 5889 5890 5882 5886 5881 5876 5873 5868 5863 5859 5853 5844 5835 5827 5819 5814 5812 5806 5801 5797 5794 5795 5795 5793 5794 5794 5794 5794 5793 5795 5792 5791 5788 5785 5786 5785 5781 5779
5812 5814 5826 5841 5840 5812 5811 5836 5884 5871 5878 5881 5885 5887 5886 5882 5879 5876 5873 5869 5864 5856 5847 5837 5827 5819 5814 5810 5805 5803 5800 5796 5793 5796 5795 5793 5793 5792 5794 5793 5793 5792 5790 5789 5785 5784 5784 5780 5777
5840 5829 5834 5812 5809 5825 5828 5831 5890 5886 5884 5889 5884 5888 5888 5887 5884 5881 5876 5870 5864 5852 5845 5839 5830 5822 5812 5812 5810 5802 5800 5798 5792 5792 5793 5793 5792 5794 5793 5792 5790 5790 5789 5788 5786 5782 5783 5778 5775